Location: Brno
(49.2000°N, 16.6330°E)
Time: 19:01:56
(UTC+02:00)

Transit 4A - Pass Details

Date: 27 July 2021
Orbit: 871 x 974 km, 66.8° (Epoch: 16 September)

Event Time Altitude Azimuth Distance (km) Brightness Sun altitude
Rises 05:06:17 0° 281° (W) 3,475 10.5 -2.6°
Reaches altitude 10° 05:09:44 10° 301° (WNW) 2,530 9.9 -2.1°
Maximum altitude 05:13:27 17° 341° (NNW) 2,068 9.9 -1.6°
Drops below altitude 10° 05:17:11 10° 21° (NNE) 2,530 11.1 -1.1°
Sets 05:20:38 0° 42° (NE) 3,475 12.7 -0.6°
